Wind_Gust
15 15 14 14 14 15 15 14 15 14 14 15 15 15 16 17 17 17 18 18 18 19 19 18 19 20 20 21 23 24 20 18 19 13 6 28 8 18 11 10 4 6 8 3 3 2 3 1 2 2 3 3 6 4 7 6 7 5 8 8 7 9 4 9 10 9 4 12 14 21 6 8 14 9 15 23 19 22 20 20 22 26 22 23 25 23 22 21
14 15 14 14 15 14 15 14 15 14 14 15 15 16 16 17 17 17 18 18 17 18 18 18 18 19 19 20 22 21 18 13 18 17 34 13 15 19 19 20 15 6 8 3 6 5 4 1 2 1 7 7 2 7 4 9 8 9 6 8 13 7 15 5 6 5 8 12 15 17 5 10 15 19 12 21 6 23 26 20 23 27 23 22 22 22 21 20
17 15 15 15 15 15 15 15 15 14 15 15 16 16 16 17 17 17 18 17 17 17 17 18 18 19 19 19 19 19 16 16 10 19 33 21 30 24 21 21 16 10 11 5 6 8 6 5 4 5 4 4 4 7 2 9 9 9 8 9 11 9 10 8 10 13 8 7 15 18 11 9 16 7 10 18 14 23 31 33 21 28 28 22 22 21 18 18
21 18 16 16 15 15 15 15 15 15 15 16 16 16 17 18 18 18 17 18 17 17 18 18 18 18 20 19 19 15 8 9 13 17 10 16 30 32 28 23 18 12 7 5 6 10 5 3 3 7 6 3 7 3 6 10 11 7 9 13 9 8 8 10 6 12 9 4 12 11 9 3 4 7 18 22 23 7 21 30 35 31 30 27 23 21 19 17
21 21 19 18 17 16 15 15 15 15 15 15 16 16 17 18 18 18 17 17 17 17 18 18 18 18 20 20 19 5 7 6 14 3 4 5 13 20 25 27 18 11 14 5 5 4 5 3 4 3 6 10 3 2 8 5 9 5 11 7 10 6 9 16 11 11 5 9 6 5 6 5 5 11 22 26 25 23 28 17 30 32 34 33 29 21 18 16
22 23 21 20 19 18 17 15 15 15 16 16 16 17 18 17 17 18 17 17 17 17 17 18 18 18 19 20 16 2 3 14 7 8 11 11 8 17 22 22 16 11 11 6 8 4 6 2 5 6 7 5 3 9 8 6 5 10 9 5 10 11 12 9 8 7 1 10 6 6 7 2 13 10 4 7 15 17 10 25 25 30 28 25 24 24 19 16
22 21 21 21 20 19 19 17 15 15 16 16 16 17 17 17 18 17 17 17 17 17 17 17 17 18 18 14 10 3 9 28 8 11 17 16 16 12 14 13 16 12 11 10 7 9 4 4 7 5 7 6 4 11 10 1 5 8 14 2 9 6 12 17 13 13 9 7 10 6 3 13 13 13 5 12 10 19 21 24 28 28 23 24 27 20 20 18
21 21 21 22 22 21 19 19 18 16 15 16 17 17 17 17 17 17 18 17 16 17 17 16 16 17 16 11 6 5 4 26 20 9 17 15 16 12 17 13 16 13 13 15 11 8 6 9 12 7 7 11 7 12 4 6 2 7 11 6 10 7 13 14 12 11 13 9 5 7 10 4 6 11 10 11 19 22 24 25 26 26 23 20 21 20 17 13
22 23 21 22 21 22 20 19 18 17 16 16 16 17 17 17 16 17 17 16 16 16 16 15 16 15 13 4 5 5 22 20 7 14 17 13 12 6 18 16 11 16 14 8 7 8 9 11 7 10 10 6 6 4 4 3 12 11 15 8 7 8 9 9 10 10 12 11 7 15 13 15 20 23 20 12 19 22 26 24 24 23 23 21 19 19 17 14
21 21 22 23 22 22 22 20 19 18 16 16 16 17 16 15 15 16 16 16 15 14 15 15 15 15 9 7 4 8 16 3 8 12 14 15 8 9 8 13 11 10 11 6 7 10 12 13 13 7 3 5 4 8 3 6 11 6 4 7 11 13 7 7 9 11 7 5 4 13 13 14 5 9 7 21 19 24 25 24 22 24 21 15 16 11 12 17
20 21 22 22 22 20 21 21 20 19 18 15 15 15 16 15 15 15 15 16 15 14 13 14 14 10 8 6 6 21 8 6 5 10 13 13 12 5 5 7 13 16 11 4 10 13 9 6 3 5 5 14 3 5 5 9 4 7 10 5 8 10 6 8 6 13 4 8 10 21 11 3 5 13 22 21 20 20 26 25 26 21 19 19 14 11 8 10
21 20 19 22 23 21 19 20 20 19 19 18 15 14 13 14 15 15 15 15 15 14 13 13 12 7 6 9 15 31 6 3 10 12 14 9 9 7 6 5 5 14 17 13 12 11 9 5 1 4 13 3 7 2 8 4 3 6 4 6 11 5 6 6 12 10 2 7 10 12 12 9 7 13 21 23 15 15 22 26 24 21 19 16 15 12 9 10
21 20 20 19 19 22 22 21 21 21 19 18 16 14 12 13 14 15 15 15 13 14 14 13 9 4 7 11 29 25 26 17 17 16 18 2 7 9 9 6 9 9 14 15 12 10 8 6 1 4 6 3 3 12 6 5 6 8 2 6 6 5 6 10 6 7 3 8 6 10 6 13 6 21 21 25 24 19 19 23 21 19 19 16 15 14 13 11
21 20 20 19 18 20 21 21 21 21 19 18 16 12 12 12 14 15 16 15 15 14 13 13 5 6 5 23 20 9 8 11 13 15 16 2 2 9 5 5 9 11 6 12 10 7 11 8 5 7 4 2 9 5 12 11 5 5 7 3 6 2 8 5 10 6 8 7 4 8 10 4 16 11 20 24 26 26 22 23 22 21 19 19 17 14 13 12
21 21 21 20 18 17 20 21 20 21 20 20 19 13 10 12 13 16 17 15 14 12 13 11 3 4 8 30 11 19 22 10 10 16 12 4 3 9 10 3 9 12 13 12 9 5 10 10 6 7 10 6 5 5 8 5 6 4 7 9 8 6 10 8 5 12 14 5 6 13 8 15 12 17 14 18 23 23 27 23 24 22 19 18 16 14 13 12
21 21 22 21 20 17 17 20 20 19 20 20 19 13 12 14 14 15 17 14 14 12 5 2 4 7 7 29 18 9 5 6 13 16 9 11 8 12 7 2 2 7 5 8 9 3 9 10 10 13 9 3 3 4 5 7 8 8 5 6 4 4 7 3 2 9 12 10 5 8 10 8 5 16 22 20 24 26 30 25 24 25 20 20 16 14 12 13
20 20 20 20 21 20 16 18 18 18 20 19 16 13 13 12 15 16 16 16 10 5 5 7 2 7 9 13 8 7 9 12 6 4 5 12 14 14 2 3 6 5 9 5 6 2 3 12 7 8 6 10 9 7 5 5 7 8 5 9 8 8 5 6 7 3 3 8 7 6 17 15 14 19 23 24 24 26 29 25 22 19 11 16 15 14 14 13
20 19 19 19 20 20 17 17 19 17 17 17 15 7 14 12 18 15 11 7 4 7 6 6 6 4 34 21 16 7 5 8 6 8 5 5 14 5 5 8 3 5 8 8 3 10 9 13 10 14 4 10 9 8 20 22 20 12 4 3 5 2 4 8 12 6 6 10 12 3 8 7 15 21 25 26 25 23 28 28 26 24 17 17 16 16 16 15
19 19 18 18 18 18 19 16 16 15 14 15 14 8 13 15 6 3 4 3 6 4 6 14 14 17 7 4 5 7 14 14 11 6 6 8 4 7 6 4 3 4 12 13 10 13 9 8 6 7 21 14 18 16 16 8 9 9 8 8 5 6 6 7 9 4 12 11 9 5 10 11 20 18 14 15 19 22 24 22 22 21 20 17 16 15 16 16
20 18 19 18 18 17 16 16 15 15 13 12 6 8 10 6 5 8 3 3 12 13 5 3 21 11 19 5 3 11 13 5 5 7 6 4 14 8 6 7 3 5 10 19 8 14 12 17 21 26 20 12 6 11 11 10 9 6 4 4 3 5 6 5 4 3 15 14 10 6 11 9 12 9 14 15 19 20 22 19 21 20 20 17 16 15 17 17
21 20 19 19 18 17 16 15 14 14 12 7 3 5 9 7 4 10 7 12 16 18 19 15 16 23 26 8 15 20 23 14 3 6 5 3 6 15 11 10 7 7 6 8 14 7 12 14 21 9 7 8 8 8 9 7 5 6 4 3 2 2 8 5 4 2 5 16 4 4 17 11 9 11 15 11 21 22 16 21 23 21 18 16 19 19 17 14
21 20 19 17 17 17 15 15 15 13 10 5 7 10 6 5 5 5 6 16 8 18 20 24 18 24 25 24 15 8 7 12 19 10 9 7 8 20 6 12 9 15 4 8 6 11 19 25 9 6 7 9 7 8 9 11 7 4 7 5 3 8 6 8 3 5 4 19 9 5 21 14 13 15 17 13 16 13 22 18 23 20 17 17 17 18 15 15
18 18 18 17 16 16 16 13 14 13 6 9 13 9 15 8 7 6 9 16 22 15 16 19 20 25 26 18 14 6 8 14 19 11 10 8 6 15 12 12 9 8 8 8 21 9 13 16 9 9 8 10 7 10 9 9 7 8 4 6 12 8 5 4 13 8 11 15 19 11 20 14 15 17 15 11 11 10 17 19 16 15 18 16 17 16 16 20
16 15 16 16 15 15 14 10 9 11 12 12 11 16 6 2 7 12 11 11 15 10 17 20 22 18 21 15 15 19 15 14 11 12 5 13 15 9 11 10 10 11 15 7 8 13 10 4 13 9 9 11 9 8 11 12 13 5 9 8 8 5 6 8 4 9 17 16 20 18 17 7 11 20 17 10 10 12 13 19 18 16 16 17 17 13 14 18
15 15 15 15 16 12 11 5 8 10 9 11 17 16 4 11 10 7 8 12 12 20 10 16 14 15 13 10 8 17 10 12 15 8 8 10 12 15 10 12 15 16 8 8 6 7 11 7 11 13 10 11 11 11 17 15 11 10 8 15 9 6 6 9 9 14 10 8 11 24 13 12 7 9 16 17 12 13 12 15 15 17 17 17 18 15 18 18
14 13 14 14 15 11 8 7 8 7 9 11 8 6 5 9 11 11 9 10 15 11 7 15 22 20 26 10 17 12 6 16 14 21 10 8 7 13 16 16 17 13 8 8 12 16 13 5 13 17 12 11 13 16 8 14 14 9 19 13 10 9 8 11 7 16 10 19 20 12 21 15 6 9 12 16 20 17 14 15 14 15 14 15 16 15 18 15
13 13 13 12 11 9 12 13 3 13 9 9 5 6 8 12 10 11 12 9 11 22 21 8 17 20 22 19 23 13 8 20 7 8 14 13 15 10 15 8 12 8 13 12 13 24 17 13 9 12 15 15 15 20 16 17 14 20 6 17 12 10 8 9 11 13 12 5 10 3 10 21 13 13 15 13 15 17 14 16 16 12 14 16 13 15 13 16
11 10 10 11 11 17 6 6 7 14 6 7 9 6 11 6 7 12 6 11 20 12 11 12 18 11 9 16 21 25 10 5 25 17 13 11 9 14 18 15 15 10 11 14 25 6 17 15 14 16 15 17 23 17 7 15 24 15 6 16 14 14 15 12 13 10 11 17 18 12 5 17 20 14 15 20 18 15 12 15 15 15 15 16 14 18 16 16
13 11 7 7 11 18 6 10 8 5 5 12 13 12 13 9 9 14 11 10 11 17 13 14 12 6 8 18 19 21 4 5 9 14 11 7 13 9 25 13 12 10 8 12 11 7 15 16 15 13 17 25 10 7 14 17 17 9 8 7 8 9 9 13 13 12 7 18 22 19 16 22 9 6 14 9 10 15 17 17 18 15 17 17 16 17 18 16
16 11 8 4 6 6 8 5 5 5 4 5 11 11 11 6 10 9 11 12 8 7 6 8 14 11 15 23 18 16 6 8 5 15 14 18 14 7 7 10 14 14 13 7 10 12 7 9 13 21 25 14 8 10 12 13 15 7 11 4 2 4 6 4 7 12 10 18 26 17 15 13 20 17 18 24 24 25 18 18 18 17 17 17 17 16 17 17
15 15 10 6 5 5 6 8 5 4 6 10 9 10 8 8 13 10 7 16 8 4 7 10 11 15 22 22 23 14 8 6 7 17 18 13 14 12 13 14 6 13 9 9 15 11 7 9 17 18 11 11 9 15 10 11 9 8 10 12 5 10 5 3 5 6 20 23 12 17 22 3 21 14 15 10 6 16 21 20 21 18 17 19 18 16 17 18
14 13 9 3 3 5 7 8 4 6 5 11 5 9 12 15 8 12 16 8 13 11 6 11 6 20 18 9 15 22 21 5 6 14 25 23 17 26 25 20 25 24 23 17 17 10 15 15 10 5 13 16 16 12 10 9 10 11 9 9 18 14 14 18 11 16 21 23 8 12 14 10 20 9 10 16 8 16 13 17 21 18 17 18 18 17 17 17
11 10 7 4 5 3 6 5 4 6 4 4 7 5 11 12 17 9 10 12 10 9 8 4 10 13 15 12 16 15 6 8 5 5 15 15 22 17 6 16 10 19 21 8 9 18 17 9 6 14 8 20 17 25 15 13 17 16 20 19 19 19 19 19 11 12 10 10 5 9 21 22 7 7 4 18 10 16 14 15 17 19 18 16 16 15 14 14
12 9 4 5 4 10 7 5 4 6 7 6 5 4 6 12 10 7 9 5 9 14 9 8 6 11 14 29 14 17 12 5 8 13 11 19 19 24 16 10 14 9 11 13 25 21 14 22 29 18 25 16 25 24 20 11 13 20 11 20 16 17 26 20 17 23 18 10 7 6 27 20 13 9 7 9 15 18 17 19 17 16 17 16 15 15 15 15
13 7 3 5 4 6 8 5 3 3 6 7 6 9 15 15 4 7 5 13 11 12 14 14 10 10 9 7 4 13 10 18 6 6 9 19 23 24 24 19 7 12 8 25 16 18 23 24 12 16 6 15 19 14 14 11 9 11 15 12 12 28 13 8 15 14 12 12 8 10 15 8 7 6 8 12 21 18 18 20 20 17 14 17 16 15 13 13
7 5 2 7 2 4 4 4 4 6 7 6 9 11 12 8 7 9 7 12 11 16 22 13 10 9 8 10 4 9 8 9 8 7 8 12 11 18 9 15 22 16 16 22 13 16 10 25 3 8 14 8 18 14 17 18 27 16 20 29 26 10 8 10 4 3 7 13 9 8 9 8 7 8 13 19 22 20 21 22 19 17 16 16 17 14 13 13
6 6 5 4 4 3 4 6 6 5 5 4 6 10 9 8 6 9 11 14 17 17 10 10 16 9 13 20 13 12 9 5 6 13 12 7 13 16 18 12 10 10 9 16 8 11 19 13 9 8 18 21 9 19 15 21 16 18 25 17 6 4 7 19 16 6 8 15 14 6 8 13 14 16 13 17 19 18 20 21 19 17 18 19 17 15 14 14
7 4 4 3 5 3 8 8 7 7 5 3 5 7 8 9 5 12 14 19 19 13 7 3 9 7 13 12 15 15 8 16 6 12 9 10 21 9 13 20 9 17 10 4 12 10 7 7 14 12 11 17 7 7 13 14 12 20 15 14 29 17 19 9 16 13 12 12 13 8 10 11 10 15 21 20 23 20 20 20 21 20 18 19 18 15 14 12
3 2 7 7 2 10 7 9 11 7 5 7 5 8 6 8 10 15 16 18 19 17 8 3 5 5 7 13 9 9 12 22 9 8 12 14 15 13 23 15 11 10 15 10 11 8 7 11 11 8 17 9 12 14 20 20 5 3 11 23 8 14 12 12 20 12 18 11 12 8 12 18 18 18 27 26 24 24 22 21 20 19 18 18 18 17 15 13
6 6 8 5 7 7 8 10 9 5 5 5 2 9 8 14 14 17 18 18 21 11 4 3 3 3 5 3 6 14 9 10 11 10 7 8 19 5 16 16 14 16 13 13 12 5 7 6 8 12 4 11 20 24 22 18 21 14 18 17 16 15 7 13 7 9 16 23 15 16 19 18 11 18 27 27 27 24 26 24 19 19 18 15 17 18 15 13
3 8 6 3 7 4 5 3 3 5 5 2 5 7 9 12 13 16 21 20 19 11 12 4 3 3 3 5 6 4 17 11 15 12 12 5 17 11 11 16 14 16 13 9 11 9 12 7 13 9 10 19 14 11 13 19 20 19 20 17 15 15 12 16 16 7 11 19 20 18 23 10 9 5 21 20 19 20 20 22 20 20 16 17 16 15 15 14
5 11 6 2 3 6 7 4 4 2 3 3 5 6 11 10 13 17 19 16 14 17 6 4 6 7 4 6 7 4 13 15 13 12 10 11 7 7 8 10 11 13 25 22 17 7 14 8 6 11 11 14 10 8 15 18 14 16 22 17 12 11 16 16 18 10 8 7 9 10 11 13 5 3 13 16 19 20 20 21 22 19 19 17 16 15 13 10
10 7 2 5 3 2 3 3 2 2 4 6 7 14 14 17 14 15 19 15 13 9 6 7 8 4 7 7 2 2 5 15 13 16 7 8 8 19 10 14 11 13 17 21 9 13 8 15 7 10 8 10 11 7 4 14 14 6 7 8 15 14 14 17 15 16 17 7 9 6 11 12 6 2 13 19 18 19 20 21 21 20 17 17 17 16 13 12
5 7 6 2 6 2 4 4 2 1 8 10 10 16 13 18 15 16 13 11 8 9 5 4 4 10 5 2 3 4 4 11 7 12 12 5 16 15 13 10 14 19 21 16 24 13 26 14 8 6 7 7 6 6 8 5 11 18 16 11 9 10 7 5 11 4 17 16 15 19 17 10 7 9 14 21 22 21 21 19 26 21 17 16 16 14 12 13
5 4 4 4 3 6 7 4 7 5 9 11 13 15 13 8 9 15 14 16 11 11 8 8 7 2 6 2 3 3 4 6 16 10 7 7 14 4 15 12 13 12 13 9 9 14 18 8 15 12 12 16 22 27 27 16 19 11 6 10 8 14 10 8 8 8 12 9 6 16 13 7 9 13 18 20 21 20 19 21 19 25 23 20 15 16 15 15
5 12 6 2 8 8 11 7 8 10 12 11 9 12 8 9 12 12 11 14 14 15 16 14 13 3 4 3 6 5 6 2 6 14 8 7 7 10 10 17 13 14 11 12 12 18 17 9 10 15 14 13 16 14 9 10 8 13 3 10 7 5 11 9 12 12 19 9 11 5 16 17 18 20 21 23 26 26 24 22 22 16 16 18 17 18 17 17
3 8 7 4 3 9 11 4 8 8 8 5 10 10 8 8 14 16 2 6 6 9 6 5 5 5 4 5 2 4 3 4 9 9 5 3 6 6 11 11 17 18 16 14 12 16 10 12 8 8 11 15 13 12 8 10 14 9 10 8 5 11 12 11 14 20 11 20 12 7 19 31 22 20 21 23 24 24 23 21 21 21 19 19 18 18 16 18
7 5 3 5 5 6 3 10 13 14 14 9 11 7 11 11 8 8 10 5 12 11 7 6 12 7 4 3 2 7 6 6 7 6 7 5 4 10 12 4 16 18 17 15 13 16 15 15 6 7 4 9 6 10 6 5 5 7 6 6 9 9 11 15 13 7 13 18 20 19 21 26 30 33 35 33 32 31 27 24 22 22 21 20 21 22 20 19
6 5 6 3 5 4 9 6 4 9 10 9 8 7 9 7 6 6 6 12 14 9 7 8 6 13 11 8 5 4 2 6 8 3 6 7 5 7 9 11 4 8 15 12 17 14 18 8 5 6 5 10 13 12 5 15 7 10 7 6 4 4 11 12 7 5 9 5 8 32 25 20 26 26 22 21 19 24 23 21 20 20 22 22 21 21 22 20
5 5 6 7 5 8 6 4 4 5 8 9 7 8 6 4 4 7 5 4 10 9 6 7 7 10 11 9 4 7 2 4 6 8 2 3 4 4 4 4 8 11 8 17 18 5 17 10 11 9 9 10 12 14 7 12 14 14 6 11 10 6 11 5 10 8 15 17 13 19 18 15 6 16 20 19 21 22 24 22 22 21 22 23 22 19 20 20
5 5 5 6 9 8 4 3 5 4 5 7 5 8 3 3 2 5 8 6 8 6 4 3 5 10 5 5 4 1 5 5 5 4 3 4 8 3 8 5 4 10 6 14 15 11 16 7 5 9 11 7 7 9 8 12 16 15 8 11 11 7 10 6 15 9 15 16 18 18 18 14 13 22 21 23 25 27 27 24 23 22 22 23 22 20 20 20
6 5 2 3 7 7 7 7 6 5 6 7 6 4 4 5 4 6 12 8 4 8 6 3 4 3 8 6 5 3 5 7 7 8 4 8 1 3 3 5 8 5 7 12 4 18 17 19 13 8 15 9 5 4 6 6 11 8 5 5 3 2 2 3 4 5 9 34 25 22 23 22 31 32 32 27 27 26 27 28 26 23 23 22 22 22 20 19
Wind_Speed
11 12 11 11 11 12 11 11 11 11 11 11 12 12 12 14 13 13 13 14 14 14 14 15 14 15 16 16 18 19 16 9 12 7 4 16 4 14 9 7 3 3 6 1 1 1 2 0 1 1 2 2 1 1 2 1 2 2 1 3 2 4 2 4 4 4 1 3 7 11 4 5 5 2 6 14 12 12 13 12 10 16 12 12 12 12 13 14
11 12 11 11 11 11 11 11 12 11 11 11 12 13 13 13 14 14 14 14 14 14 14 14 14 15 15 16 17 17 13 8 11 12 20 4 11 14 14 16 9 4 6 1 4 3 2 0 1 1 3 2 1 2 2 2 2 3 1 2 6 3 6 3 2 4 3 6 7 7 4 4 4 9 3 9 4 12 15 12 14 15 12 13 13 13 13 14
14 12 12 12 11 12 12 12 12 12 12 12 12 13 13 13 13 14 13 13 14 13 14 14 14 15 15 15 16 15 11 10 5 12 20 16 23 19 17 17 13 8 5 2 3 5 3 3 3 3 1 1 1 3 0 2 3 4 3 4 5 5 5 4 4 8 5 5 8 9 6 1 8 1 1 8 9 13 18 15 13 15 17 13 11 13 12 12
17 15 13 13 12 12 11 12 12 12 12 12 12 13 13 13 14 14 14 13 13 13 13 14 14 15 16 15 15 9 4 5 4 7 5 10 22 24 23 19 13 9 4 3 3 6 4 2 2 4 2 0 2 0 1 4 2 2 3 5 3 4 4 6 5 8 6 3 5 5 5 2 3 2 7 13 14 4 10 19 24 18 19 16 14 12 12 11
17 16 15 15 14 13 12 11 12 12 12 12 13 13 13 13 14 14 13 13 13 13 13 14 15 15 15 16 14 3 3 3 4 1 1 4 9 16 17 21 14 8 9 2 3 3 3 2 1 1 2 2 1 1 3 2 2 2 6 4 6 3 3 10 7 6 3 6 1 4 3 1 2 5 13 17 15 10 14 9 15 21 21 22 18 14 11 11
15 17 17 16 15 15 14 13 11 12 13 13 13 13 13 14 13 13 13 13 13 13 13 13 14 14 15 16 9 1 1 3 2 2 9 9 7 12 16 17 13 8 7 3 4 2 4 0 2 2 1 1 2 4 3 2 2 3 3 3 6 6 6 4 3 3 1 4 3 3 4 1 6 5 1 5 1 9 7 15 15 20 18 15 15 14 13 11
16 16 15 17 16 15 15 14 12 12 13 13 13 13 14 13 13 13 13 13 12 13 13 13 13 14 13 12 4 1 3 9 4 6 13 11 13 7 11 10 13 9 7 5 4 4 3 3 4 3 3 2 2 3 5 0 2 4 4 1 6 4 8 11 9 8 6 6 5 2 1 6 7 8 2 6 6 11 14 16 18 17 15 14 14 12 13 12
16 16 17 16 17 17 15 15 14 13 12 13 13 13 13 14 13 13 13 13 12 12 12 12 12 13 12 5 3 1 1 11 9 7 13 11 12 3 11 9 11 9 9 10 7 5 4 5 7 2 2 6 3 6 2 4 1 3 3 3 5 3 8 10 7 6 6 5 2 5 5 0 1 4 4 6 11 14 17 17 17 14 14 13 12 13 11 9
16 16 15 17 16 17 16 15 15 14 13 12 13 13 14 12 12 13 13 12 12 12 11 12 12 12 10 1 1 3 9 8 4 9 12 10 8 5 11 6 7 10 7 4 5 6 6 5 3 4 4 2 2 2 3 1 5 5 9 4 4 5 6 6 6 7 6 2 5 9 9 7 13 14 12 6 11 14 18 16 16 14 14 12 11 10 10 10
15 15 15 16 17 16 17 16 15 15 13 12 13 13 13 12 12 12 12 12 11 11 11 11 11 12 5 3 2 3 7 2 5 8 10 11 6 6 6 9 6 7 5 4 5 7 7 5 8 4 2 2 2 3 2 4 4 3 2 4 7 9 5 5 5 8 2 2 3 8 7 8 2 4 1 4 10 14 15 16 13 14 13 10 9 7 3 7
16 15 15 15 16 16 14 16 16 15 14 13 12 12 13 12 11 12 12 12 11 11 9 10 11 7 3 2 1 10 4 4 3 6 9 9 9 4 1 2 6 6 5 3 6 9 5 4 2 2 1 4 1 2 3 3 1 4 4 3 5 7 5 6 5 9 2 1 7 14 8 0 2 4 12 9 6 8 15 16 18 13 11 11 9 7 4 3
16 15 15 14 16 16 15 15 16 15 15 14 12 11 11 10 10 11 12 12 12 10 9 9 9 3 2 5 7 12 3 2 6 7 8 6 5 4 5 1 2 5 10 6 7 7 5 3 1 0 3 0 1 0 3 2 2 3 2 2 6 3 1 4 7 7 1 2 7 8 8 4 4 8 10 11 8 3 12 17 15 13 11 10 9 7 6 6
16 16 15 14 13 14 16 16 16 17 15 15 13 11 10 9 10 11 11 11 10 10 10 9 6 2 3 5 14 13 17 10 11 11 11 1 4 5 5 4 4 5 5 9 7 6 5 4 0 1 1 0 1 1 1 2 3 4 1 2 4 2 3 6 3 4 0 3 5 6 1 7 0 11 12 14 15 9 11 12 12 10 9 9 9 8 8 6
17 16 16 14 13 13 13 15 16 16 16 15 14 10 9 9 9 10 11 11 12 10 9 9 2 2 2 9 6 4 5 6 9 11 9 0 1 5 1 3 5 6 3 5 4 4 7 5 3 3 1 0 2 3 5 3 3 1 3 1 1 1 2 2 3 4 3 3 1 4 5 2 7 5 12 14 15 17 10 11 12 11 10 9 8 6 7 8
17 16 16 16 14 13 12 12 14 15 15 16 15 12 6 6 8 10 11 11 10 9 9 7 1 1 3 11 6 14 18 6 6 11 7 2 1 5 6 1 4 7 7 7 2 3 6 7 4 1 2 2 1 2 3 2 3 1 2 3 3 4 4 4 2 6 6 1 5 5 5 7 7 9 3 10 14 15 13 12 13 12 10 11 9 7 7 7
16 16 16 16 16 14 12 12 12 14 13 15 16 11 8 8 8 10 12 10 11 9 3 1 1 3 3 11 6 5 1 3 7 10 6 6 4 7 2 1 0 3 3 3 4 1 5 5 3 5 2 1 1 1 3 2 3 4 2 3 1 1 3 2 2 5 7 2 4 1 4 3 1 6 13 9 16 17 15 16 15 16 13 12 9 7 7 8
16 15 15 14 15 15 13 13 12 11 13 14 14 11 9 7 8 11 11 12 6 2 2 1 1 3 3 3 4 3 3 4 4 1 2 5 9 6 1 1 1 2 5 2 2 1 1 4 1 2 0 3 4 3 2 2 3 2 2 3 3 4 1 1 3 2 0 3 3 3 8 7 7 12 13 14 16 17 18 14 10 10 4 8 7 7 7 7
15 15 14 14 13 15 14 12 13 13 10 13 13 6 5 8 12 10 7 3 2 3 3 2 2 1 12 6 5 4 3 4 3 3 4 3 8 3 3 1 1 3 4 1 1 4 2 3 3 6 1 4 4 4 8 11 8 5 1 1 1 0 2 3 4 2 4 6 7 1 5 5 7 13 16 17 15 14 15 13 15 15 8 9 8 8 9 8
15 14 14 14 13 13 14 13 12 12 9 8 12 7 9 8 2 1 1 1 2 1 1 3 5 5 1 2 3 5 6 8 6 4 3 4 1 3 1 0 0 2 3 4 2 8 1 2 2 3 10 7 10 8 8 3 6 5 5 4 2 3 2 2 4 2 8 4 3 2 4 7 12 12 3 2 11 12 14 11 12 12 11 10 10 9 10 10
15 14 14 14 13 12 13 13 12 11 7 4 3 2 3 1 0 1 0 1 4 7 2 1 11 4 11 2 1 6 7 3 1 4 4 2 7 4 2 2 1 1 4 6 3 7 4 7 9 13 10 7 4 7 7 6 6 3 2 2 2 2 3 3 1 1 7 7 4 2 4 5 7 5 4 3 8 7 10 11 12 13 12 10 9 10 11 11
16 16 14 13 13 14 11 11 11 10 8 3 1 2 1 3 0 3 2 7 10 12 13 10 9 12 11 3 8 12 11 8 1 3 2 1 4 9 3 4 2 3 2 5 6 1 6 7 10 5 4 6 6 6 6 4 2 3 2 2 1 1 3 2 1 2 3 6 2 2 8 7 6 7 6 3 7 7 5 2 12 13 10 8 11 12 12 9
16 16 14 14 12 13 12 9 10 9 6 2 3 4 1 2 2 1 1 5 4 12 14 16 12 14 12 13 9 4 4 5 13 5 4 4 3 8 2 4 3 7 2 4 4 3 7 10 4 3 5 6 5 6 6 7 4 2 4 2 1 4 2 4 1 1 2 8 2 2 9 7 8 10 5 2 8 3 8 5 10 13 10 8 10 10 9 10
13 13 12 13 12 11 12 8 7 6 2 3 5 4 4 4 4 3 3 6 10 7 10 12 12 16 13 7 5 4 5 7 8 5 2 4 3 7 6 5 5 4 3 5 10 5 5 7 6 6 5 7 3 5 5 5 4 5 3 3 5 3 2 1 4 5 7 2 8 6 11 7 9 8 7 4 5 3 5 7 8 9 11 9 10 9 9 14
12 11 11 12 11 11 10 8 2 3 5 7 7 8 2 0 4 7 5 3 6 5 9 11 13 9 10 4 5 10 8 4 4 6 3 4 7 5 4 6 7 5 7 5 5 7 4 2 8 6 6 7 6 5 6 6 6 1 5 4 3 2 2 3 0 4 9 10 8 11 7 3 6 8 5 4 3 3 3 8 4 8 9 9 10 8 6 10
12 11 10 11 12 7 8 1 1 4 5 7 8 2 1 6 5 3 2 3 3 7 6 8 5 5 5 4 5 6 4 4 9 3 1 5 5 6 3 2 4 7 5 5 4 4 6 4 6 9 6 6 6 6 9 8 6 3 4 8 6 4 4 6 4 5 5 2 6 8 3 2 4 3 6 8 4 5 1 3 4 7 10 11 10 8 9 11
11 10 10 10 12 7 4 3 3 3 6 4 2 3 1 4 4 4 3 2 5 3 3 6 8 7 8 3 8 5 4 5 8 10 4 3 2 3 3 3 3 7 4 5 6 3 5 2 8 10 7 6 7 6 4 9 7 4 7 8 7 6 6 7 4 8 2 5 9 5 5 2 3 3 5 8 8 7 3 6 5 2 8 9 8 8 11 9
8 7 9 9 3 6 4 3 2 8 4 1 3 3 2 6 3 6 2 2 3 5 8 0 5 1 5 10 11 7 2 7 2 4 7 6 5 2 6 2 3 1 4 2 1 6 5 7 6 6 9 8 7 9 6 10 8 4 2 11 8 7 6 6 6 5 5 2 3 0 1 5 4 7 5 7 8 9 7 8 10 5 7 8 7 9 9 9
9 7 6 7 6 12 0 1 3 7 2 4 3 3 6 1 3 4 0 1 2 3 2 2 5 2 2 9 13 9 5 1 7 5 7 6 4 4 4 7 5 6 4 5 11 2 10 6 8 8 7 7 11 6 5 10 8 3 3 10 9 9 8 6 7 4 3 7 6 6 1 2 4 6 9 11 8 7 5 6 8 8 8 9 8 9 9 10
10 9 5 4 6 12 2 2 2 0 2 4 7 5 4 2 4 4 2 1 1 1 2 4 5 2 3 11 9 12 2 1 1 5 4 3 4 2 6 5 4 5 3 6 5 1 2 9 9 8 7 11 4 4 9 11 6 2 5 5 5 5 4 8 7 6 2 5 8 10 5 3 0 2 7 4 5 8 8 10 10 9 11 10 8 9 11 10
13 9 4 1 2 2 3 0 1 2 1 1 3 6 6 2 3 1 3 3 1 2 2 0 3 5 8 11 6 7 2 3 2 4 4 4 5 1 0 6 4 5 5 2 4 6 3 5 8 7 10 4 4 4 6 9 5 4 3 1 1 1 1 1 4 4 4 5 11 10 7 4 2 6 7 11 9 13 10 10 10 10 11 10 9 9 10 9
12 11 7 3 1 1 2 3 2 3 1 3 4 4 1 0 2 1 0 3 1 1 2 3 3 9 11 14 9 6 3 2 4 7 6 3 4 3 4 4 1 3 2 3 5 5 4 2 5 3 7 4 6 5 4 6 6 5 2 4 0 3 2 1 1 2 5 7 5 7 11 2 7 2 6 3 2 10 13 14 14 11 10 9 8 8 9 10
10 9 6 1 0 2 2 3 1 3 3 4 2 5 2 4 4 3 4 3 2 4 1 2 2 7 11 5 6 9 7 1 2 4 11 8 8 9 10 8 7 8 9 8 7 3 8 6 1 3 7 11 5 6 2 5 4 6 4 5 8 2 2 4 1 2 7 7 3 7 8 1 9 3 2 8 4 11 8 10 12 12 11 10 11 10 7 9
9 7 2 0 2 1 3 2 1 2 2 2 4 1 2 3 3 3 4 5 2 4 3 1 5 8 9 7 6 8 3 3 2 1 9 5 11 9 4 8 5 6 6 3 4 7 6 4 3 5 4 8 9 11 4 5 7 9 9 8 8 5 5 6 2 0 2 4 3 2 13 6 2 2 2 7 6 9 9 10 11 12 12 10 10 9 8 8
9 7 2 3 2 5 3 2 1 1 1 2 0 0 1 4 2 3 3 1 5 7 6 3 1 7 9 8 5 8 4 3 4 2 6 7 10 10 7 6 9 3 5 6 7 8 6 8 13 8 6 7 10 11 10 4 7 8 4 8 7 4 4 5 3 7 7 4 2 3 8 5 7 2 5 3 9 12 10 11 11 11 11 10 10 10 9 9
11 5 2 2 2 3 5 2 1 1 2 3 3 1 4 3 1 2 0 4 2 6 7 8 3 5 5 1 1 6 3 2 2 3 3 9 10 9 9 9 4 5 3 10 4 3 14 5 6 8 3 8 10 5 7 6 5 3 6 5 3 12 6 2 5 6 4 4 2 1 1 3 1 2 2 7 12 11 12 12 13 11 8 10 9 9 8 7
4 3 0 3 1 2 2 2 2 2 3 3 1 1 3 1 2 3 2 5 4 7 11 8 5 3 2 3 0 5 4 1 4 2 0 6 5 7 5 3 6 9 5 7 3 3 3 7 1 2 8 5 11 7 5 9 6 4 9 11 12 5 3 5 2 1 4 7 0 1 2 2 1 3 8 11 14 12 14 14 12 11 11 11 10 9 8 7
3 3 1 2 2 1 2 3 3 2 3 1 0 1 3 3 2 4 5 8 10 11 5 4 2 2 4 6 3 5 3 2 1 2 1 2 2 5 6 4 5 4 5 7 2 3 8 3 3 4 11 10 5 11 8 10 7 6 8 8 3 2 2 3 4 1 2 5 2 1 3 6 5 2 5 10 12 12 13 14 12 12 12 12 10 9 8 8
2 2 1 1 3 1 3 3 2 3 2 2 1 3 4 3 2 7 8 11 10 8 4 0 2 5 2 3 5 5 2 5 2 3 3 3 2 4 6 4 5 8 6 1 4 2 2 2 5 7 7 9 4 3 5 8 8 11 8 7 10 4 8 1 3 2 2 1 2 2 5 3 5 4 11 12 14 13 13 12 13 13 12 12 11 9 9 7
0 0 2 4 1 4 2 3 5 3 2 2 1 3 2 2 4 7 9 9 10 9 4 1 0 1 3 3 2 2 5 5 2 3 3 2 2 4 9 5 3 6 9 6 2 1 1 2 3 2 9 4 5 6 8 8 1 1 6 10 3 5 3 3 4 4 7 4 3 3 7 5 6 5 16 17 16 15 15 13 13 13 11 11 11 10 9 8
3 1 2 3 3 4 2 4 3 1 0 1 0 2 3 5 6 10 9 9 7 5 1 1 2 2 3 1 3 5 2 5 5 3 2 1 5 2 7 9 5 7 9 7 3 1 1 2 1 3 2 6 7 6 10 9 10 6 7 6 3 1 2 5 1 2 6 7 4 4 4 5 4 9 14 16 15 16 16 14 10 11 11 10 11 11 9 8
1 2 1 1 3 2 2 1 1 2 1 1 1 2 4 4 6 8 13 14 9 5 6 1 1 0 0 2 3 1 4 4 4 3 2 1 5 0 4 6 7 7 4 4 6 2 1 1 4 3 3 8 7 4 7 11 11 9 8 7 7 8 4 7 6 2 3 7 6 5 7 1 4 3 12 12 11 11 12 14 12 13 11 11 10 10 9 9
1 3 1 1 1 1 2 2 1 1 1 1 1 1 3 5 5 10 11 9 9 6 2 0 2 3 1 3 3 1 4 4 4 3 1 4 2 1 3 8 7 9 9 5 6 3 5 2 1 3 4 6 6 5 9 12 8 9 12 8 7 4 7 5 5 3 3 1 3 4 2 4 2 2 8 10 11 12 11 14 12 12 12 11 10 10 8 7
3 3 1 3 2 1 1 1 1 0 2 2 3 7 7 6 6 6 9 9 6 3 2 2 3 1 4 2 0 0 2 2 5 5 2 4 3 8 6 11 8 9 10 4 4 4 5 1 0 5 4 6 6 4 1 8 9 2 2 4 7 6 7 8 5 7 7 3 3 0 1 2 3 1 8 12 12 11 11 14 14 12 10 10 11 11 9 8
1 1 1 1 3 1 1 1 1 1 3 5 5 8 6 8 6 7 6 6 2 3 2 1 2 5 2 1 0 1 2 2 3 6 3 2 3 9 8 8 10 5 8 6 7 4 3 2 3 2 1 0 2 2 2 2 1 4 5 3 5 5 5 3 6 2 5 8 9 8 6 3 2 4 8 13 14 14 14 12 16 13 10 10 10 9 8 9
1 1 1 0 1 2 2 1 2 2 4 6 6 8 6 4 5 9 8 9 6 4 2 3 3 1 2 0 1 1 2 3 2 4 3 4 4 1 9 8 10 5 5 5 6 7 6 3 4 3 3 5 5 8 7 6 10 2 1 5 4 9 7 4 2 2 4 2 4 4 3 3 5 6 11 13 14 13 13 13 12 16 14 12 9 9 9 9
1 2 2 0 2 3 4 2 3 4 5 6 5 5 4 4 4 7 7 8 8 7 6 6 6 2 1 1 2 3 3 1 2 3 2 1 2 2 2 10 9 6 5 8 7 9 3 2 4 7 6 6 8 6 5 5 1 3 1 7 2 3 7 5 5 5 7 3 5 1 7 9 11 13 13 15 16 17 16 14 13 10 11 11 11 11 10 10
0 2 1 1 0 4 5 1 4 4 3 2 3 4 4 3 7 6 1 2 2 4 1 1 2 1 1 2 1 2 2 1 6 5 1 0 2 2 6 6 8 11 12 7 9 6 3 2 5 5 6 6 6 7 5 7 8 4 6 5 3 6 6 7 6 7 5 11 6 1 10 17 14 14 14 15 14 15 14 13 13 12 11 11 11 11 11 11
1 1 0 2 1 2 0 4 7 8 9 5 4 2 6 7 4 2 5 2 6 5 2 2 6 4 3 2 0 2 3 2 2 1 3 0 1 5 5 3 5 9 12 5 7 5 5 4 3 3 1 4 3 7 3 2 3 3 4 4 6 6 8 9 7 4 8 7 9 12 14 14 17 21 22 20 19 17 16 14 13 13 13 12 14 14 13 12
2 2 3 1 1 2 4 3 2 5 6 5 2 4 5 3 3 2 2 5 6 4 3 2 4 9 8 5 2 1 0 1 3 1 1 2 3 2 3 4 2 4 8 4 7 3 4 2 3 3 2 4 7 8 2 10 3 6 5 3 2 3 6 8 4 4 6 2 3 18 17 12 15 15 14 13 12 15 13 12 12 13 14 15 14 14 14 13
0 2 2 3 2 4 3 2 1 3 3 5 3 4 1 1 2 4 2 2 3 4 3 4 5 7 7 6 3 3 1 2 2 3 1 2 1 2 0 1 3 6 2 6 5 2 5 2 5 3 4 5 7 9 4 7 9 7 4 6 6 3 6 2 5 4 9 9 8 11 9 6 2 8 11 11 12 13 14 14 14 14 14 15 14 13 13 13
2 2 2 2 4 4 2 1 2 1 2 3 1 5 2 2 1 3 3 3 5 2 2 2 3 7 3 4 3 0 4 3 3 1 1 1 3 1 1 1 2 4 2 5 5 1 6 1 3 3 5 3 4 5 5 6 9 10 5 6 5 3 5 2 4 4 8 10 12 12 9 4 5 13 12 14 15 17 17 16 14 13 15 15 14 13 13 13
2 3 1 0 3 3 3 2 2 2 3 4 3 2 1 3 3 4 4 4 2 5 3 2 3 2 5 4 3 2 3 4 4 5 2 3 1 2 0 1 2 2 2 4 1 5 4 6 3 1 6 3 2 0 4 4 6 3 1 2 2 1 1 1 2 2 3 20 13 10 12 10 17 18 19 17 18 17 17 17 16 15 15 15 15 14 13 12
Wind_Direction
284 287 292 294 296 300 303 305 304 306 309 311 311 314 316 318 318 318 316 315 313 315 317 321 319 316 318 323 324 324 332 329 310 302 252 240 198 239 237 234 49 162 184 204 320 4 301 47 172 288 75 114 241 122 237 108 162 80 173 129 265 203 193 218 205 186 228 301 309 331 43 312 98 53 103 76 55 86 86 72 62 58 67 96 105 115 130 127
280 279 284 287 287 291 294 297 299 303 304 305 309 308 314 316 317 317 318 319 316 316 319 317 317 320 321 323 325 328 337 314 297 279 244 189 210 227 235 240 217 139 111 127 181 189 145 270 270 96 118 160 291 182 137 240 135 150 161 122 226 199 239 179 215 275 320 292 300 300 312 206 194 132 184 104 110 103 88 86 92 90 81 87 107 128 127 134
283 280 276 276 279 283 288 290 294 296 299 301 304 308 311 316 315 314 316 317 317 318 319 320 319 322 324 323 323 336 332 312 290 262 268 204 234 227 227 234 225 197 169 174 211 153 156 195 179 106 25 125 311 177 105 254 153 229 147 236 240 219 249 237 248 268 262 273 300 319 324 147 200 53 115 118 131 116 122 122 110 118 125 129 129 136 137 138
293 282 274 271 273 275 277 284 289 293 296 298 304 308 310 311 313 317 316 318 317 319 321 321 321 323 320 323 327 334 21 284 273 248 265 217 213 221 217 223 215 175 157 227 191 166 168 113 88 113 86 153 298 101 164 248 150 277 148 203 227 224 238 265 224 242 259 231 283 303 330 133 269 141 127 130 111 130 158 158 147 147 143 141 147 146 144 142
291 288 279 275 271 272 273 276 282 287 292 294 298 303 306 307 315 313 315 314 317 317 319 319 321 320 323 323 327 9 302 3 267 237 266 306 230 229 216 217 194 166 170 161 123 103 116 124 97 57 99 206 345 49 237 246 215 113 211 199 209 256 254 259 242 275 274 267 340 300 7 240 80 100 148 146 138 178 171 180 137 142 145 148 151 155 147 145
292 288 287 281 277 274 273 271 274 281 284 290 295 298 302 306 311 311 313 315 317 319 319 322 320 322 322 328 319 123 181 164 283 339 332 332 281 224 209 211 172 151 153 179 174 139 115 319 92 102 104 105 212 167 269 194 151 245 301 233 228 234 238 286 276 200 209 302 321 335 315 33 147 149 222 4 162 137 134 146 137 135 140 139 140 141 145 148
310 298 287 288 278 270 268 269 268 273 280 286 291 295 299 306 310 311 314 318 317 320 319 321 325 322 332 334 302 145 204 284 323 270 352 1 349 236 199 171 147 137 151 168 166 140 160 129 141 193 114 142 258 187 252 355 198 192 244 275 283 218 242 258 266 271 272 254 255 258 358 106 141 142 349 78 78 116 123 138 137 131 129 129 128 141 148 157
308 300 291 282 286 277 268 265 265 265 275 280 286 292 298 302 307 311 317 316 319 317 320 320 322 326 344 350 351 265 296 250 259 334 354 13 10 95 130 128 140 141 154 187 163 159 139 155 171 150 151 148 221 166 257 218 260 202 268 245 260 265 248 262 263 274 278 250 252 42 75 82 144 107 77 80 111 119 123 134 135 117 120 128 134 148 151 139
305 303 299 284 278 286 277 266 263 261 262 276 281 287 294 302 307 311 311 316 316 317 317 322 322 335 354 261 263 323 242 244 29 356 10 4 32 22 125 113 139 149 178 157 162 158 136 222 162 177 214 206 215 179 257 157 310 195 225 238 278 268 277 287 300 277 258 305 112 76 87 100 106 85 50 4 114 121 126 131 131 128 127 132 144 150 147 148
304 303 302 296 282 279 284 269 263 264 266 266 276 284 292 299 303 306 310 315 316 318 320 325 321 341 1 347 264 225 265 141 29 5 5 359 357 31 322 127 140 150 143 175 116 139 186 199 174 215 125 208 191 222 184 140 232 168 221 234 247 259 275 292 256 272 284 195 161 111 130 133 204 71 65 1 305 136 125 126 127 128 128 129 137 127 131 145
307 298 297 296 285 273 280 283 268 264 264 262 273 280 288 297 302 305 310 310 314 316 321 321 328 343 352 31 249 220 234 116 351 357 354 358 0 6 337 39 168 160 171 136 171 184 177 129 178 139 92 222 83 291 149 221 307 291 258 302 278 273 271 272 281 272 333 287 134 131 148 10 360 113 160 155 250 163 129 125 130 132 131 134 123 120 120 99
306 301 295 295 297 286 267 273 279 268 261 264 270 278 290 296 302 306 305 309 312 316 316 316 320 321 270 277 248 223 43 349 325 331 333 340 319 292 274 172 251 211 173 184 212 207 156 165 326 62 185 14 240 282 251 288 316 283 339 327 284 351 277 246 229 253 106 248 126 137 74 11 334 135 138 136 134 199 129 127 129 127 129 126 117 116 114 116
303 300 295 292 289 293 288 273 269 268 262 263 266 271 281 287 297 304 303 303 303 309 309 310 333 8 336 285 242 253 287 301 314 320 310 306 264 256 240 257 202 226 214 186 213 193 157 142 102 256 241 30 187 142 274 357 310 342 25 172 321 4 332 263 260 277 277 265 144 143 179 287 5 132 149 151 138 169 134 124 124 122 124 120 125 126 115 90
301 299 295 293 290 289 292 282 270 273 272 267 268 272 271 281 295 301 302 298 303 305 311 303 21 302 198 251 278 286 278 300 307 308 280 174 279 292 272 228 211 204 210 234 242 129 147 162 176 220 309 98 261 304 2 350 2 149 251 74 196 79 262 286 199 217 174 314 346 80 115 267 146 135 145 151 150 151 139 130 125 125 125 129 128 118 107 85
299 298 298 295 291 289 285 286 277 267 265 266 268 273 287 291 293 295 297 302 297 299 296 307 201 308 249 263 273 262 250 258 271 252 237 181 195 315 291 208 187 194 197 207 224 159 146 146 134 204 249 255 213 336 331 16 352 333 41 297 316 145 274 296 288 172 175 314 16 80 74 180 168 156 197 172 147 138 135 137 133 134 133 132 113 95 83 79
298 298 296 297 297 293 289 287 285 271 269 277 271 279 286 289 291 290 290 289 290 293 321 353 244 171 311 288 267 306 101 178 244 238 233 167 175 226 198 60 343 198 157 247 231 120 153 141 162 181 222 305 114 100 22 24 335 348 139 264 218 158 240 7 262 212 163 113 0 147 187 120 267 222 161 197 154 146 137 144 143 141 127 122 107 102 103 96
296 294 293 292 292 294 286 282 278 279 275 271 274 282 289 296 292 285 284 283 275 263 194 229 117 174 209 228 329 312 255 245 305 351 75 202 178 203 95 352 264 144 183 259 163 193 256 150 213 93 148 169 167 116 114 315 302 286 12 198 208 171 217 270 300 315 298 107 208 8 123 190 166 185 173 179 158 154 149 135 98 41 330 104 103 105 105 98
292 292 291 289 288 286 285 279 277 274 263 271 278 288 303 299 287 289 285 262 220 223 215 220 245 246 268 266 291 255 278 300 316 262 195 196 194 141 157 195 355 163 126 194 101 154 192 173 132 195 78 170 146 147 161 208 183 186 197 88 287 70 195 196 154 235 96 9 141 258 120 180 180 170 169 170 163 161 142 123 138 143 150 111 113 111 106 100
286 288 289 287 285 290 289 285 276 273 276 286 291 309 307 294 322 130 198 155 101 14 4 213 154 168 256 300 266 346 326 282 276 277 276 136 168 147 144 139 102 105 148 140 261 154 202 83 102 130 209 179 194 181 176 191 151 173 164 172 165 140 219 200 250 301 111 58 51 335 157 162 160 171 103 105 155 149 139 138 131 122 114 119 117 111 109 103
283 285 286 285 287 286 286 286 278 269 268 279 316 348 4 22 347 319 23 214 210 212 210 207 213 297 324 269 69 345 314 297 307 229 199 238 111 133 156 147 114 120 134 179 177 194 131 170 189 200 202 188 167 171 172 186 159 141 113 112 181 187 290 274 250 141 129 90 5 344 80 100 131 135 75 75 354 191 138 125 123 117 120 117 111 104 97 88
281 282 280 277 276 276 278 282 282 275 254 204 137 70 189 208 28 307 332 225 221 235 260 259 208 238 248 352 322 15 5 314 351 295 250 235 130 127 217 139 135 164 201 159 154 251 126 190 220 198 173 158 174 167 178 163 171 156 146 148 288 164 238 257 24 265 323 106 338 5 83 66 68 72 67 71 24 342 16 156 110 108 109 110 107 102 98 104
278 274 275 271 272 270 273 277 278 276 243 210 181 204 244 243 90 2 233 302 258 225 235 251 249 251 253 264 282 347 321 292 307 282 264 158 192 162 234 142 152 178 193 155 101 153 196 209 195 180 173 151 147 163 179 173 179 160 175 167 116 275 230 288 350 28 29 87 152 91 93 72 64 77 54 97 118 277 309 175 112 115 113 109 101 107 113 110
283 277 272 273 272 273 271 267 275 276 239 201 211 208 242 277 318 330 351 278 281 231 219 234 255 253 260 256 246 201 219 230 261 294 236 135 145 184 143 143 157 162 166 157 183 131 197 243 214 174 133 138 163 168 176 188 165 146 105 132 202 241 125 332 343 4 358 131 150 138 99 99 86 81 111 87 114 183 270 105 100 112 113 109 111 115 121 110
285 276 271 269 264 258 264 273 303 254 228 222 225 227 139 264 359 7 3 260 292 270 196 218 220 240 242 199 182 178 189 232 190 269 274 148 157 163 132 153 149 157 195 164 161 172 189 247 166 157 149 150 167 192 174 176 216 190 166 165 166 172 183 148 287 62 67 48 118 112 84 86 113 130 122 108 90 129 334 86 84 92 93 98 100 99 99 98
292 285 273 266 264 260 263 205 139 214 222 219 245 275 24 275 270 313 286 286 253 276 205 245 187 235 220 150 128 161 213 274 235 259 267 138 157 135 208 172 124 197 158 163 147 164 249 271 150 148 174 169 161 193 201 155 199 240 230 193 171 153 98 94 128 93 22 62 264 138 91 271 87 106 143 138 124 122 174 105 81 114 109 109 108 108 90 81
310 294 283 272 263 258 163 126 209 174 173 212 165 105 173 248 235 219 212 264 288 246 100 243 140 252 130 187 140 187 134 247 212 219 226 219 199 142 137 212 133 185 163 135 172 194 189 226 163 173 165 180 187 203 193 160 183 166 258 167 151 149 129 127 119 83 93 161 225 261 161 206 81 176 163 146 150 146 144 118 90 45 112 111 115 102 90 100
323 296 285 275 292 137 140 214 109 140 181 239 49 33 32 292 207 178 203 276 309 208 167 191 161 247 164 173 153 158 95 259 149 174 198 240 183 147 149 195 115 129 149 158 95 242 161 191 176 173 170 177 190 208 204 163 138 215 238 153 148 133 149 170 146 126 192 275 296 86 199 147 152 187 182 139 153 148 153 142 132 157 111 107 98 95 102 102
336 317 294 272 231 184 334 53 139 161 156 52 333 25 316 291 316 190 343 92 277 147 149 202 226 162 165 159 152 171 197 153 137 216 186 194 167 169 173 182 159 157 169 158 198 300 166 190 177 188 180 183 207 192 131 157 156 200 178 138 160 160 192 176 148 151 178 138 224 263 112 101 187 139 137 146 141 137 161 162 144 135 113 106 103 105 103 98
353 0 327 265 239 219 149 127 44 57 15 14 333 301 279 282 239 150 172 138 105 141 86 113 251 149 110 145 164 200 332 236 219 152 151 131 229 101 191 194 152 167 228 170 169 261 221 192 185 176 175 207 158 150 162 162 169 244 152 138 150 163 180 171 168 135 170 145 225 215 206 158 257 152 143 135 131 161 180 159 147 138 125 126 123 110 101 96
20 24 348 209 186 214 222 162 349 320 264 141 259 291 283 280 143 337 54 272 111 292 159 249 157 183 147 151 182 211 208 295 283 115 135 144 205 275 285 134 154 165 208 150 181 206 214 165 163 178 203 177 149 197 151 167 159 154 110 53 41 96 155 64 92 120 71 216 224 195 199 120 222 205 189 160 200 175 150 147 145 134 125 126 115 108 111 104
10 19 28 55 109 160 102 10 212 243 258 290 302 275 290 222 148 172 108 235 331 270 61 152 195 127 149 159 172 204 216 312 327 149 141 130 161 191 132 150 134 160 187 178 204 235 281 189 169 219 124 145 147 204 153 159 170 131 123 158 4 308 24 57 13 97 163 244 246 183 178 114 213 235 191 214 122 156 159 151 142 133 125 125 113 113 112 104
359 3 25 305 111 360 109 185 288 321 308 307 28 53 168 127 2 156 212 325 59 294 166 207 155 148 170 186 155 163 175 113 259 159 161 165 159 180 192 183 154 157 200 184 212 198 249 238 252 115 161 147 162 171 211 144 158 153 115 126 158 249 111 251 76 223 210 203 271 166 134 51 239 219 267 147 120 137 149 141 135 128 124 125 121 117 110 108
335 342 358 187 322 134 242 249 285 332 337 11 77 103 127 110 194 254 302 325 85 16 300 167 164 165 172 164 187 166 185 173 216 230 146 149 157 197 202 185 178 137 180 166 129 171 254 316 274 207 159 187 153 180 154 165 202 161 169 169 157 171 179 204 250 191 311 279 329 154 165 203 353 292 257 161 144 118 109 114 118 123 124 121 117 112 105 100
318 317 300 246 220 218 223 228 209 54 40 43 133 164 46 79 255 174 244 335 266 331 309 340 189 161 162 176 177 150 163 252 143 230 158 156 166 181 213 217 157 159 93 156 171 174 164 227 241 179 219 163 183 192 173 159 163 192 125 155 179 146 163 195 186 185 204 202 292 311 143 247 144 249 336 166 132 119 111 111 112 111 116 113 105 101 101 108
311 307 262 294 298 246 226 206 163 109 141 35 54 107 126 209 329 304 246 339 323 310 309 317 153 131 169 199 111 163 136 216 205 139 151 151 190 186 185 191 223 142 137 143 231 119 207 225 264 196 219 167 190 176 140 123 128 191 150 108 127 224 133 138 200 152 162 123 68 354 195 359 5 339 77 118 119 112 111 117 119 119 110 113 106 112 115 117
338 312 5 298 301 273 162 152 124 119 77 44 67 165 198 229 221 9 2 334 320 350 321 331 115 96 114 187 40 172 206 104 225 97 40 171 168 182 190 171 183 182 143 162 191 179 133 229 276 175 210 182 187 150 185 149 192 216 135 196 214 118 104 83 68 128 101 75 300 144 131 156 101 41 113 132 123 123 122 128 125 121 120 114 114 117 122 126
4 338 11 295 290 251 140 144 162 106 86 151 75 219 332 350 11 324 322 333 314 305 302 63 172 112 172 185 176 170 205 73 316 126 225 150 171 193 182 207 155 153 184 130 250 187 157 235 272 127 209 225 192 178 171 185 143 128 182 214 63 84 105 156 206 11 54 158 178 153 207 177 167 208 165 130 126 132 134 138 130 125 127 123 126 126 133 137
334 310 253 261 248 99 119 147 92 38 81 19 342 280 29 324 18 311 308 312 314 315 298 106 276 87 188 125 209 166 199 146 227 124 202 205 239 204 177 183 191 175 203 211 127 253 138 312 244 195 188 208 162 148 207 203 163 179 187 167 159 201 234 302 109 178 156 157 205 263 200 223 216 180 152 156 150 151 144 141 138 142 138 130 131 130 135 137
298 103 26 333 332 119 104 80 50 31 24 80 317 317 10 283 297 298 305 301 286 295 311 273 137 301 142 157 205 124 149 174 209 172 121 220 159 211 188 162 191 185 183 140 179 221 67 167 298 216 182 187 161 141 213 207 299 37 117 166 175 142 187 132 206 167 108 175 141 251 172 236 194 188 171 169 165 155 145 152 150 143 140 134 132 136 138 140
17 50 10 320 59 78 134 71 48 13 322 152 346 272 356 304 305 303 295 305 316 345 257 329 352 341 7 196 171 168 150 145 160 241 123 211 184 264 191 183 164 185 181 171 197 127 284 122 214 291 235 135 207 190 207 169 178 174 160 178 192 118 218 103 56 115 156 158 183 144 207 236 228 171 186 175 167 158 150 144 135 136 139 132 138 142 143 142
328 103 62 51 121 134 76 14 340 360 32 313 317 293 324 294 322 291 296 291 292 273 256 189 208 199 276 23 9 150 150 143 161 185 177 249 176 125 247 184 139 172 124 167 203 170 116 92 193 309 128 200 222 240 162 178 174 173 161 182 169 120 123 169 236 39 89 117 171 153 234 273 261 194 186 166 155 134 139 136 131 135 131 136 140 141 139 131
29 75 73 42 262 130 57 28 329 257 24 303 236 213 281 309 288 277 287 293 268 266 224 327 241 224 234 231 196 346 128 158 161 166 234 165 230 168 227 176 162 151 154 186 184 234 149 165 104 256 209 219 220 226 188 172 168 164 167 207 168 142 118 120 172 225 48 41 102 144 121 277 259 320 143 145 143 145 130 126 128 131 135 142 139 131 122 120
11 71 262 174 239 322 37 61 253 259 247 236 276 271 262 262 252 269 294 290 300 263 244 197 229 199 243 181 162 220 139 149 164 191 190 192 237 207 228 180 163 148 149 190 120 241 135 232 262 294 291 283 281 317 341 179 137 115 231 93 137 170 175 164 168 181 137 150 92 33 171 249 292 120 133 126 131 129 132 131 128 133 140 142 136 133 129 121
32 114 104 208 187 281 313 94 313 324 274 275 270 271 256 246 250 281 268 280 284 324 271 265 288 208 265 220 146 206 179 80 208 154 236 207 234 228 212 180 175 179 155 215 167 217 147 273 122 325 3 356 342 6 74 335 184 161 176 201 164 136 105 142 111 62 118 207 161 131 213 248 229 144 121 127 132 138 140 141 135 137 144 143 137 121 120 126
341 328 62 275 192 201 270 50 337 324 313 312 308 291 284 256 226 246 273 288 274 245 279 254 215 50 286 229 236 265 229 163 143 213 153 191 233 252 210 179 191 190 191 186 160 155 165 201 132 195 184 169 201 190 199 195 205 236 151 134 159 140 138 114 163 145 180 242 127 157 182 263 126 133 129 135 138 138 144 144 146 145 150 147 131 124 129 129
353 107 308 61 184 214 256 260 267 270 288 292 289 260 260 275 276 262 252 269 252 258 248 274 305 272 254 41 1 3 346 36 88 178 101 268 315 292 203 193 180 187 199 164 151 132 158 139 144 174 174 196 209 221 248 128 63 143 222 131 191 127 151 115 116 118 194 192 168 231 161 142 146 154 153 158 156 154 154 154 152 145 141 134 129 133 133 132
164 99 167 248 199 231 259 256 262 243 240 276 298 336 305 298 284 305 256 286 332 312 324 156 265 18 340 63 349 14 330 3 4 71 351 294 257 255 298 221 201 199 180 166 170 119 103 165 204 162 213 234 222 218 207 183 167 190 130 170 165 143 146 128 145 217 163 109 225 33 169 138 176 166 165 161 157 152 153 152 147 141 136 131 131 130 126 125
60 263 270 225 186 234 206 276 221 238 250 266 266 270 272 298 331 329 309 256 323 318 82 318 13 13 24 33 57 69 337 42 24 62 328 336 301 326 5 341 180 209 180 178 179 154 147 179 242 134 329 336 344 301 238 78 94 137 123 143 164 171 152 163 193 175 145 169 198 177 180 160 174 180 177 172 164 157 151 148 143 138 133 134 136 135 134 134
194 250 231 322 272 260 191 236 214 221 250 218 247 259 290 302 323 9 4 314 350 329 31 88 351 347 343 348 92 141 18 67 339 314 111 293 64 6 14 357 47 31 169 163 182 178 128 178 179 110 123 348 343 348 297 119 107 55 43 31 33 171 195 151 119 164 161 168 191 164 178 180 178 173 160 152 142 138 137 137 141 141 142 140 141 141 140 143
312 343 305 345 260 282 270 274 282 329 282 276 271 249 252 295 320 339 330 11 333 310 347 86 339 332 328 342 358 82 303 170 159 82 253 145 347 61 183 173 296 333 170 170 177 266 153 247 144 115 57 327 336 355 359 122 124 97 50 42 43 85 78 44 106 118 89 57 103 129 129 106 45 126 126 122 127 130 138 150 148 145 144 146 144 146 145 143
315 295 275 311 316 262 246 58 335 337 292 308 222 283 332 325 22 333 284 220 212 236 10 20 335 329 341 1 347 247 217 197 203 185 237 145 75 243 93 324 73 315 314 159 185 213 165 213 33 93 76 318 329 9 330 84 92 107 67 26 22 68 119 174 131 208 125 136 127 123 118 148 153 132 128 133 141 148 151 151 150 151 151 150 149 149 148 147
278 259 276 71 275 317 333 295 244 168 238 221 191 255 316 278 306 355 334 304 266 237 235 66 347 25 316 10 313 274 231 204 224 228 233 220 211 274 229 189 56 26 292 142 43 137 139 129 144 115 101 254 270 7 285 339 84 62 347 290 252 246 256 92 336 37 171 138 125 145 208 174 155 148 145 155 155 154 153 159 153 153 158 157 154 152 146 145